[[{"header":{"parameterUnit":"m.s-1","parameterCategory":1,"la1":30.2992,"la2":30.254,"lo1":-89.0895,"lo2":-89.0443,"dy":0.0025,"dx":0.0025,"nx":19,"ny":19,"refTime":"2026-05-23T21:00:00:Z","depth":0,"parameterNumber":2,"parameterNumberName":"U-component_of_WINDS"},"data":[0,0,0,-0.7069,-0.7074,-0.7349,-0.735,-0.7682,-0.7684,0,0,0,0,0,0,0,0,0,0,0,-0.6974,-0.6975,-0.7068,-0.7075,-0.7349,-0.735,-0.7681,-0.7684,0,0,0,0,0,0,0,0,0,0,0,-0.6973,-0.6975,-0.6977,-0.7076,-0.7349,-0.735,-0.768,-0.7481,0,0,0,0,0,0,0,0,0,0,-0.7218,-0.7116,-0.6975,-0.6977,-0.7077,-0.7348,-0.735,-0.7471,-0.7493,-0.7548,0,-0.7592,0,-0.7643,-0.7705,-0.7706,0,0,0,-0.7085,-0.7098,-0.7184,-0.6978,-0.7079,-0.7348,-0.7228,-0.7484,-0.7508,-0.7577,-0.7597,-0.761,-0.7648,-0.7707,-0.7709,-0.7984,-0.7984,0,0,-0.707,-0.7016,-0.7167,-0.7199,-0.7154,-0.7219,-0.7236,-0.7499,-0.7518,-0.7598,-0.7618,-0.7654,-0.7709,-0.7711,-0.7983,-0.7984,0,0,0,-0.7019,-0.7005,-0.7085,-0.7185,-0.7236,-0.7227,-0.7247,-0.7506,-0.7537,-0.7622,-0.7658,-0.7711,-0.7715,-0.7982,-0.7983,-0.7966,0,0,0,-0.7011,-0.6976,-0.7078,-0.7048,-0.723,-0.7374,-0.7248,-0.7519,-0.755,-0.7656,-0.7711,-0.7718,-0.7982,-0.7983,-0.7965,-0.7967,0,0,0,-0.6961,-0.697,-0.7005,-0.7045,-0.716,-0.7371,-0.7417,-0.7527,-0.7572,-0.7706,-0.7719,-0.7981,-0.7983,-0.7964,-0.7966,-0.8022,0,0,0,-0.6892,-0.6989,-0.7004,-0.7126,-0.7158,-0.7359,-0.7416,-0.757,-0.7683,-0.7713,-0.7982,-0.7983,-0.7964,-0.7965,-0.802,-0.8057,-0.8068,0,0,-0.6984,-0.6998,-0.7074,-0.7096,-0.7279,-0.7321,-0.7504,-0.7661,-0.7725,-0.7894,-0.7902,-0.7966,-0.7966,-0.8021,-0.8152,-0.816,0,0,0,-0.7085,-0.7139,-0.7199,-0.7303,-0.7424,-0.7527,-0.7661,-0.7719,-0.7865,-0.78,-0.8004,-0.8006,-0.8041,-0.8061,-0.8068,-0.81,-0.7991,-0.7991,-0.7991,-0.7137,-0.7211,-0.7341,-0.7448,-0.7549,-0.7685,-0.7773,-0.7875,-0.7923,-0.797,-0.802,-0.809,-0.8111,-0.8117,-0.8149,-0.8048,-0.8048,-0.8048,-0.8048,-0.7276,-0.7363,-0.7422,-0.7569,-0.7647,-0.7773,-0.7908,-0.7937,-0.8066,-0.8059,-0.8093,-0.8076,-0.8123,-0.8156,-0.8047,-0.8047,-0.8047,-0.8047,-0.8047,-0.7316,-0.737,-0.7438,-0.7594,-0.7707,-0.7814,-0.7933,-0.8002,-0.8068,-0.8102,-0.8161,-0.8161,-0.8168,-0.8126,-0.8126,-0.8126,-0.8126,-0.8127,-0.8127,-0.7329,-0.7406,-0.7497,-0.7631,-0.7706,-0.7814,-0.7951,-0.8028,-0.813,-0.8171,-0.8172,-0.8213,-0.8114,-0.8086,-0.8131,-0.813,-0.813,-0.8129,-0.8129,-0.7438,-0.7424,-0.7564,-0.7638,-0.7802,-0.7908,-0.7994,-0.8143,-0.8217,-0.8273,-0.8309,-0.8225,-0.8245,-0.824,-0.8217,-0.8293,-0.8293,-0.8293,-0.8293,-0.7469,-0.7486,-0.7643,-0.7758,-0.7878,-0.797,-0.8126,-0.8234,-0.8344,-0.8394,-0.8394,-0.8371,-0.8362,-0.8387,-0.8379,-0.8359,-0.8469,-0.8469,-0.8469,-0.7539,-0.757,-0.7688,-0.7793,-0.7926,-0.8038,-0.8187,-0.8317,-0.844,-0.8478,-0.8434,-0.8427,-0.839,-0.8375,-0.8408,-0.8394,-0.8359,0,0]},{"header":{"parameterUnit":"m.s-1","parameterCategory":1,"la1":30.2992,"la2":30.254,"lo1":-89.0895,"lo2":-89.0443,"dy":0.0025,"dx":0.0025,"nx":19,"ny":19,"refTime":"2026-05-23T21:00:00:Z","depth":0,"parameterNumber":3,"parameterNumberName":"V-component_of_WINDS"},"data":[0,0,0,2.1913,2.1916,2.2084,2.2085,2.2281,2.2282,0,0,0,0,0,0,0,0,0,0,0,2.1851,2.1852,2.1912,2.1916,2.2084,2.2085,2.228,2.2282,0,0,0,0,0,0,0,0,0,0,0,2.185,2.1852,2.1853,2.1917,2.2084,2.2085,2.228,2.216,0,0,0,0,0,0,0,0,0,0,2.2,2.1932,2.1851,2.1853,2.1918,2.2084,2.2085,2.2155,2.2168,2.2196,0,2.2218,0,2.2253,2.2294,2.2295,0,0,0,2.1925,2.1921,2.1977,2.1853,2.1919,2.2083,2.2011,2.2162,2.2177,2.2213,2.2221,2.2229,2.2256,2.2295,2.2296,2.2428,2.2428,0,0,2.1916,2.1875,2.1966,2.1985,2.1958,2.2005,2.2016,2.2171,2.2177,2.2222,2.2234,2.2259,2.2296,2.2298,2.2428,2.2428,0,0,0,2.1883,2.1868,2.1921,2.1977,2.2008,2.201,2.2022,2.2171,2.2191,2.2236,2.2262,2.2297,2.2299,2.2428,2.2428,2.2397,0,0,0,2.1878,2.1849,2.1916,2.1893,2.2005,2.2092,2.2018,2.218,2.2199,2.2261,2.2297,2.2301,2.2428,2.2428,2.2398,2.239,0,0,0,2.1844,2.1845,2.1865,2.189,2.1961,2.209,2.212,2.2185,2.2214,2.2295,2.2302,2.2428,2.2428,2.2398,2.2391,2.2412,0,0,0,2.1796,2.1837,2.1864,2.1919,2.1959,2.2069,2.2119,2.2204,2.2269,2.2298,2.2428,2.2428,2.2398,2.2391,2.2412,2.2423,2.2424,0,0,2.1824,2.1838,2.1874,2.1904,2.1998,2.2047,2.2137,2.2237,2.2282,2.2377,2.2381,2.2397,2.2391,2.2412,2.244,2.244,0,0,0,2.1869,2.1894,2.1928,2.1988,2.2063,2.2127,2.2217,2.2253,2.2335,2.2322,2.2412,2.2409,2.2424,2.2431,2.2431,2.2446,2.2429,2.2429,2.2429,2.1851,2.1906,2.1968,2.2042,2.2099,2.219,2.2241,2.2306,2.2346,2.2366,2.2395,2.2405,2.2411,2.2412,2.2426,2.2404,2.2404,2.2404,2.2404,2.1898,2.1942,2.1991,2.207,2.2127,2.2193,2.2281,2.2307,2.2377,2.2388,2.2403,2.2411,2.241,2.2426,2.2402,2.2403,2.2403,2.2403,2.2403,2.1893,2.1923,2.1966,2.2056,2.212,2.2194,2.2258,2.2308,2.2356,2.2371,2.2407,2.2408,2.2415,2.2384,2.2384,2.2384,2.2384,2.2384,2.2385,2.1871,2.192,2.1968,2.205,2.2094,2.2158,2.2247,2.2292,2.2355,2.2386,2.2387,2.2424,2.2399,2.2392,2.2385,2.2385,2.2385,2.2385,2.2385,2.19,2.1901,2.1974,2.2018,2.2118,2.2177,2.2239,2.2325,2.2369,2.2399,2.2433,2.2406,2.2425,2.2425,2.242,2.2421,2.2421,2.2421,2.2421,2.1896,2.1909,2.1995,2.2062,2.2132,2.2195,2.2277,2.2346,2.2418,2.2448,2.2455,2.2452,2.245,2.247,2.2469,2.2465,2.2477,2.2478,2.2478,2.1916,2.1939,2.1999,2.2068,2.2148,2.2217,2.2294,2.2369,2.245,2.2481,2.2473,2.2471,2.2466,2.2462,2.2494,2.2492,2.2485,0,0]}]]